星链-3301 (STARLINK-3301 )

导读 | 豆包AI

STARLINK-3301是美国太空探索技术公司(SpaceX)星链互联网卫星星座的成员,2021年12月18日发射入轨。星链计划旨在构建全球卫星互联网星座,为全球偏远、欠发达地区提供高速互联网接入服务,该卫星是星链规模扩容进程中的一颗组网卫星,承担着补充星座覆盖、提升网络容量的任务,助力星链实现全球网络覆盖目标。

基本信息
目录编号:
50169
目录名称:
STARLINK-3301
国际标识:
2021-125P
轨道中心:
EARTH
卫星名称:
星链-3301
卫星全名:
星链-3301 (STARLINK-3301 )
卫星状态:
在轨 (已飞行1547 天)
发射日期:
2021-12-18 UTC
国别 :
美国 (US)
星等 :
--
轨道信息
数据来源 国际轨道数据
星历时间: 2026-03-14T10:50:59+0800
17小时前
查看轨道信息
半长轴: 6917.873km
偏心率: 0.000142
轨道倾角: 53.216°
近地点辐角 102.162°
升交点赤经 229.238°
平近点角 257.954°
近地点: 538.753km
远地点: 540.719km
周期: 95.437分钟
每日圈数: 15.088425
详细信息
固有亮度:
5
最大亮度:
2.5
卫星平台:
Starlink v1.5
覆盖范围:
全球
运营商:
太空探索技术公司
运营商所在国:
美国
制造商(研发单位):
太空探索技术公司
制造商所在国:
美国
使用方式:
暂无
卫星简介
星链(Starlink)计划是由太空探索技术公司(SpaceX)提出的一个巨型低轨卫星互联网星座项目,计划在2019年至2024年间在太空搭建由约1.2万颗卫星组成的“星链”网络,其中1584颗将部署在地球上空550千米处的近地轨道,并从2020年开始工作。该卫星仍在工作。
2D轨道图
3D轨道图
轨道高度分析图
轨道倾角分析图
轨道综合分析图
查看轨道综合分析图